Regional Weather Roundup
Issued by NWS

Home | Current Version | Previous Version | Text Only | Print | Product List | Glossary Off
Versions: 1 2 3 4 5 6 7 8 9 10 11 12 13 14 15 16 17 18 19 20 21 22 23 24 25 26 27 28 29 30 31 32 33 34 35 36 37 38 39 40 41 42 43 44 45 46 47 48 49 50

000
ASUS43 KLMK 021510
RWRKY
KENTUCKY REGIONAL WEATHER ROUNDUP
NATIONAL WEATHER SERVICE LOUISVILLE KY
1100 AM EDT MON MAY 02 2016

NOTE "FAIR" INDICATES FEW OR NO CLOUDS BELOW 12,000 FEET
WITH NO SIGNIFICANT WEATHER AND/OR OBSTRUCTIONS TO VISIBILITY.

KYZ001>023-026-027-061>063-070>075-021600-
WESTERN AND SOUTH CENTRAL KENTUCKY

CITY           SKY/WX    TMP DP  RH WIND       PRES   REMARKS
PADUCAH        PTSUNNY   61  51  70 NE3       30.04R
HENDERSON      CLOUDY    59  48  67 CALM      29.99R
OWENSBORO      PTSUNNY   62  51  67 N6        30.01F
HOPKINSVILLE   TSTM      56  55  95 NE8       30.00F FOG
BOWLING GREEN  HVY RAIN  60  55  83 NW3       30.02R
GLASGOW        CLOUDY    64  55  74 E3        29.98F
$$

KYZ024-025-028>034-038-045-046-053-021600-
NORTH CENTRAL KENTUCKY

CITY           SKY/WX    TMP DP  RH WIND       PRES   REMARKS
LOUISVILLE/SDF CLOUDY    65  54  67 NW9       29.99F
LOUISVILLE/LOU CLOUDY    64  52  64 W5        30.00S
FORT KNOX      PTSUNNY   62  54  76 NW6       29.98F
$$

KYZ035>037-039>044-047>052-055>060-089>105-021600-
NORTHEAST KENTUCKY

CITY           SKY/WX    TMP DP  RH WIND       PRES   REMARKS
LEXINGTON      SUNNY     68  53  58 SW7       29.98F
COVINGTON      PTSUNNY   64  55  72 SW6       29.98F
FRANKFORT      MOSUNNY   68  55  63 W5        29.97F
$$

KYZ054-064>069-076>088-106>120-021600-
SOUTHEAST KENTUCKY

CITY           SKY/WX    TMP DP  RH WIND       PRES   REMARKS
JACKSON        CLOUDY    69  61  75 CALM      30.00F
LONDON         CLOUDY    69  60  73 S5        30.01F
SOMERSET       CLOUDY    66  61  82 S3        30.01F
MIDDLESBORO    CLOUDY    71  63  75 S3        30.01F
MONTICELLO     CLOUDY    69  63  81 N8        30.01F
$$




USA.gov is the U.S. government's official web portal to all federal, state and local government web resources and services.